Presure
122 117 119 121 124 115 123 123 125 111 116 130 126 127 140 148 154 166 172 167 130 181 188 137 143 129 102 105 105 117 126 137 112 135 94 117 149 140 110 159 153 139 129 142 141
132 123 115 115 119 119 127 117 118 124 124 105 133 122 127 141 144 153 150 164 136 136 120 162 157 155 152 118 125 115 132 95 101 110 129 103 140 146 135 130 135 138 143 151 170
136 132 125 129 131 130 126 120 119 110 125 126 112 115 119 126 146 132 149 152 153 169 163 132 139 176 178 160 138 121 122 129 112 152 118 134 115 133 134 144 141 151 160 182 161
131 129 133 137 139 138 128 122 120 118 111 131 126 119 123 127 125 140 132 130 147 152 155 163 168 167 168 156 182 186 145 144 143 148 155 134 133 141 146 148 160 183 173 157 169
142 136 125 125 130 132 135 137 133 127 132 127 125 117 130 129 113 130 122 132 134 127 132 147 153 161 166 167 157 120 133 166 188 216 199 153 146 145 158 179 182 161 157 160 177
140 148 148 124 136 141 139 124 130 132 132 128 130 121 130 118 113 120 125 125 125 122 141 137 133 135 149 158 163 168 164 167 176 166 158 150 188 191 183 175 161 152 156 164 248
120 103 136 149 147 151 146 145 140 144 127 136 132 125 128 149 128 131 126 129 120 138 144 125 134 145 129 138 147 149 156 166 167 169 170 173 173 171 168 159 147 155 151 247 241
132 120 123 135 135 148 137 142 143 144 159 165 137 142 135 134 89 93 125 121 137 134 137 131 139 137 136 150 154 129 139 142 143 134 151 166 163 158 148 142 148 152 159 239 233
152 147 124 118 128 133 109 101 114 133 135 151 138 151 157 161 160 126 125 128 131 152 114 141 112 125 129 131 162 155 147 137 133 139 150 153 146 145 136 148 148 144 159 237 232
179 170 162 156 136 134 136 101 101 95 97 99 104 142 142 144 155 158 131 127 130 102 130 147 133 140 107 128 144 133 142 131 132 132 136 142 145 131 146 143 142 139 140 205 230
152 156 180 188 184 182 184 180 176 150 144 139 135 103 120 137 124 139 184 175 128 132 157 135 100 126 138 137 145 116 125 155 157 133 143 144 144 147 145 134 138 136 147 164 215
194 200 206 204 192 187 173 164 166 149 169 172 184 126 111 140 113 152 162 161 176 205 136 140 145 101 138 133 127 138 124 113 130 135 146 154 136 136 135 140 136 140 136 139 216
196 191 191 191 189 203 210 207 207 164 160 182 201 187 162 188 163 192 192 116 203 192 183 207 161 171 207 145 133 122 145 121 128 123 126 137 144 129 127 137 133 134 123 147 206
193 194 195 197 197 199 198 197 194 190 202 188 194 193 193 195 196 193 176 189 153 109 122 153 199 209 193 201 168 119 164 144 130 146 113 131 141 126 125 138 134 132 134 136 140
207 209 203 202 204 206 211 201 194 205 202 198 190 191 190 192 181 182 186 182 184 199 197 185 164 195 115 142 184 202 157 214 203 149 146 129 147 139 141 131 127 126 126 138 135
247 223 220 206 203 200 198 200 202 212 200 203 199 197 199 198 192 190 194 184 189 194 202 196 173 188 172 162 124 118 127 227 144 203 100 140 140 135 144 129 134 126 130 136 141
205 207 217 234 241 247 257 258 223 208 191 193 199 192 186 187 192 147 193 197 196 192 183 199 199 188 164 183 160 135 124 130 217 153 96 129 170 115 137 123 124 132 126 131 135
177 248 232 239 237 209 207 218 258 265 228 207 200 182 194 201 205 194 194 188 186 183 187 190 198 197 186 123 217 217 213 205 212 206 89 100 129 144 116 127 130 132 126 131 132
250 254 192 173 161 201 228 243 226 215 242 253 251 214 211 188 189 186 186 180 179 185 191 184 177 191 189 184 219 208 109 203 200 86 210 122 155 114 105 126 168 127 147 138 132
205 266 259 227 213 198 193 174 223 233 247 206 207 263 234 215 205 204 206 207 199 204 78 137 202 186 188 189 215 82 153 194 187 193 192 206 215 117 184 125 132 135 135 140 136
390 400 481 487 463 429 245 229 210 179 243 233 245 203 226 238 223 206 205 207 208 208 206 208 193 193 189 179 201 195 199 183 187 192 202 213 199 137 138 134 174 130 138 140 124
372 384 452 474 448 439 445 458 244 172 178 175 253 234 233 203 241 129 78 211 215 207 206 198 199 196 203 174 199 203 199 188 186 179 192 203 217 200 103 89 91 112 114 135 137
338 357 383 440 430 427 434 432 475 285 250 226 180 224 239 227 213 232 244 237 232 221 205 203 197 199 210 193 210 169 106 185 176 184 191 184 197 208 133 121 191 171 134 126 140
322 327 355 372 442 454 435 422 468 471 310 274 233 168 218 203 231 193 152 211 211 236 217 161 204 215 198 209 201 203 201 177 173 174 179 187 182 195 202 139 235 192 114 134 123
308 320 343 367 409 440 456 449 444 447 465 286 267 251 203 186 176 231 230 216 207 212 233 217 195 205 203 211 210 167 203 177 165 97 177 182 190 193 192 198 233 200 173 186 173
299 306 322 341 360 434 449 427 431 437 444 474 290 269 253 228 183 255 166 228 223 210 217 201 215 204 226 194 211 205 199 179 175 165 163 173 183 189 199 191 196 219 224 190 143
293 305 311 329 351 368 426 424 418 417 436 452 467 315 271 251 226 184 256 250 232 220 220 235 230 222 219 211 216 211 194 175 176 165 166 177 181 182 190 197 194 189 213 233 210
Wind_Speed
16 13 13 11 12 10 11 9 11 8 7 9 7 7 9 9 8 9 11 20 20 19 20 23 28 18 9 10 8 13 15 24 9 22 6 11 33 24 13 37 31 20 20 25 25
28 22 16 14 14 13 16 14 12 15 15 8 16 12 11 15 13 13 17 15 22 23 20 22 30 33 29 15 16 14 19 3 5 10 25 7 19 27 22 17 20 20 24 28 32
34 33 27 30 29 26 21 16 16 18 20 22 17 14 16 16 20 17 21 22 23 19 21 24 23 19 25 35 29 20 19 22 15 26 23 20 18 19 21 22 22 29 29 29 24
35 32 35 38 38 38 27 20 22 23 22 28 26 23 22 20 18 23 22 20 22 25 25 23 23 26 23 23 23 24 27 27 25 24 25 19 20 22 23 24 29 28 24 19 25
46 43 32 31 35 36 36 35 32 30 32 30 30 26 31 24 24 24 22 23 25 22 24 26 26 29 25 26 24 20 21 22 25 23 27 27 25 24 26 28 25 20 19 21 28
48 50 51 34 46 50 47 28 33 35 34 32 34 32 38 23 30 27 26 26 27 23 31 29 26 22 25 28 26 26 27 27 25 25 20 25 21 21 23 22 18 14 16 22 10
38 23 54 56 56 58 55 53 47 48 35 41 39 36 41 47 39 40 29 29 29 32 34 29 31 32 18 19 22 25 24 25 25 26 23 22 21 20 20 17 12 12 13 8 11
56 48 48 57 54 59 54 56 55 53 59 60 43 47 47 42 13 13 34 33 41 36 36 34 39 28 21 31 32 14 14 19 21 18 20 22 20 17 15 12 12 8 17 11 16
65 66 53 44 50 55 40 34 37 50 47 58 48 53 56 61 54 46 41 44 39 47 28 41 24 26 25 20 43 30 23 23 19 21 23 20 17 16 14 13 10 6 15 12 16
75 73 72 72 65 59 64 43 42 36 41 38 40 54 54 57 56 55 50 46 49 21 38 53 42 49 17 24 30 23 32 24 22 22 22 18 18 18 17 12 9 8 9 7 16
77 78 76 74 75 77 75 75 75 71 67 59 54 49 45 54 45 50 62 59 52 51 59 52 18 31 43 39 41 19 21 41 33 24 25 21 19 17 16 13 10 8 9 17 17
82 85 84 81 78 79 79 78 79 73 78 78 74 54 52 59 50 57 63 64 61 53 59 58 46 28 52 42 32 35 24 19 22 20 23 28 21 18 18 14 14 9 7 6 16
81 83 84 84 82 80 80 82 82 82 80 80 74 74 72 67 70 65 59 44 55 57 62 52 54 54 50 56 37 34 43 25 30 33 32 30 28 25 23 19 15 11 13 11 12
86 88 88 88 87 84 84 84 84 82 77 81 78 74 69 63 62 64 63 63 60 52 51 58 46 48 53 55 58 30 52 40 34 39 30 37 33 31 27 21 16 14 12 11 7
91 92 91 91 92 89 84 85 86 85 86 81 83 77 78 69 71 69 71 65 65 64 55 66 53 47 40 42 41 53 55 48 50 45 37 44 40 30 28 24 21 20 17 12 12
91 96 94 96 95 94 88 85 83 87 86 83 83 84 80 77 71 70 70 71 67 63 52 59 57 52 58 52 42 41 43 41 38 52 22 57 40 30 28 29 25 24 21 15 13
96 95 94 94 94 93 92 93 98 91 84 81 79 82 84 79 75 47 70 68 64 65 62 59 59 62 55 51 51 54 44 50 41 34 13 2 39 22 28 35 31 28 26 21 16
60 101 102 100 98 96 94 93 93 92 95 86 86 86 89 85 82 77 73 70 67 67 66 59 56 58 59 27 47 38 36 37 37 44 17 6 39 33 36 38 38 33 30 24 20
107 107 73 66 60 77 100 99 101 90 84 85 90 96 95 89 85 81 78 74 74 73 70 67 57 60 58 57 42 40 26 49 43 18 41 40 51 42 29 37 48 35 36 29 26
95 91 96 98 90 82 79 69 89 97 93 92 93 90 95 93 93 91 88 80 80 82 12 36 67 65 64 57 42 24 34 37 48 50 56 51 51 41 46 35 42 43 36 32 31
57 61 56 40 35 43 108 100 82 67 94 97 99 89 90 96 97 95 86 81 80 73 70 69 71 63 68 54 47 47 43 50 50 52 47 46 57 45 49 46 49 46 41 37 36
65 64 57 37 33 31 30 30 107 72 73 70 96 97 96 89 98 40 15 84 80 75 78 73 72 66 66 66 56 54 54 56 50 60 54 44 40 44 37 23 16 32 31 43 44
69 74 66 48 36 32 29 29 25 116 106 94 73 83 97 97 94 92 93 92 89 83 80 74 72 71 70 66 57 44 39 56 59 58 51 52 47 45 32 41 57 52 53 43 48
68 71 78 62 40 31 28 28 21 25 110 116 98 77 85 88 100 78 54 85 82 87 82 58 78 72 66 72 67 60 58 61 60 59 58 55 57 48 49 29 46 63 40 46 39
72 79 85 69 57 37 24 14 14 20 26 119 115 105 85 80 76 100 97 91 84 84 89 82 75 74 75 65 63 47 59 64 61 35 58 62 57 52 50 50 39 61 59 66 63
73 75 84 79 69 44 21 10 11 16 22 22 122 118 110 98 80 103 68 95 93 84 83 78 81 76 76 69 69 67 64 69 70 71 69 69 62 53 47 54 54 47 54 69 60
73 80 80 77 71 54 35 14 5 11 14 17 23 111 118 108 96 76 99 101 95 91 88 92 85 79 78 76 73 69 66 70 72 73 71 68 68 64 51 49 51 55 47 48 61
Wind_Direction
269 259 263 270 265 253 262 261 269 255 238 256 229 223 264 239 224 213 215 222 233 225 229 241 244 239 225 202 239 250 212 259 261 268 118 256 284 279 309 295 296 297 292 310 312
263 268 259 253 256 256 259 255 257 266 257 244 266 239 243 257 237 235 232 233 239 238 248 240 245 244 244 246 239 222 243 188 255 215 268 287 269 277 281 290 289 297 301 300 298
263 264 269 270 268 267 260 250 254 252 265 267 251 246 240 244 250 246 243 240 237 228 234 247 246 239 249 250 252 250 244 253 264 264 248 257 249 275 273 286 293 295 296 299 309
272 272 270 267 263 263 258 247 249 252 251 256 263 259 248 251 249 240 253 252 251 245 236 233 242 239 241 246 250 255 255 261 263 263 265 260 265 270 276 286 292 293 304 306 312
264 266 264 265 268 267 265 262 256 254 255 253 257 250 263 256 254 253 252 255 258 259 261 252 244 250 239 242 245 245 256 260 264 263 263 268 269 272 286 284 285 302 309 308 307
268 265 263 263 267 266 267 250 261 259 257 254 251 258 259 247 249 246 249 252 251 252 261 261 256 255 250 249 247 247 251 255 259 265 260 275 264 263 270 276 295 303 311 315 217
272 274 267 262 262 260 263 264 264 261 253 258 255 252 255 251 258 261 252 251 249 258 256 263 267 264 246 258 249 253 254 252 257 263 263 265 265 267 268 281 288 300 314 224 199
264 265 267 267 267 263 266 264 263 262 261 260 254 256 254 250 245 250 248 245 259 257 261 257 264 260 258 264 260 233 248 254 261 260 265 266 268 267 263 267 269 314 323 201 191
264 262 263 265 267 265 265 266 255 260 257 259 255 256 257 260 255 248 250 254 254 250 250 257 254 257 242 239 261 260 253 246 244 256 259 258 259 261 251 265 277 280 322 196 191
263 264 264 264 262 263 261 260 259 265 268 266 256 256 255 255 254 255 247 251 255 245 249 255 251 256 247 244 255 233 253 226 226 239 248 249 251 247 256 257 267 267 280 256 197
267 266 264 260 260 260 259 259 259 260 260 255 254 256 246 255 248 247 258 257 251 254 248 254 253 241 260 250 259 243 229 261 254 231 247 247 245 248 252 248 257 238 300 324 206
267 266 264 262 262 261 260 259 259 259 260 261 259 245 249 252 257 253 253 252 254 253 250 250 253 238 252 247 241 244 241 204 192 212 247 254 236 230 242 243 251 252 252 270 216
266 265 265 264 262 260 260 260 259 259 258 259 258 257 256 254 255 253 250 249 249 252 253 250 248 249 243 253 238 245 254 222 245 214 225 236 242 224 236 234 239 243 232 293 231
267 266 264 263 262 260 259 260 259 258 255 257 256 256 253 249 248 246 249 247 246 255 250 247 244 241 242 241 250 247 245 253 237 251 258 231 224 222 232 229 227 243 257 274 285
267 266 264 263 264 261 258 254 256 255 255 254 258 254 255 249 247 247 249 249 250 249 247 248 246 244 247 241 243 239 242 233 233 250 219 236 244 210 221 223 219 237 236 252 266
267 264 263 262 261 261 258 254 251 250 252 252 252 255 253 253 248 249 248 247 247 250 246 247 242 238 242 241 239 237 235 234 237 232 243 236 245 217 222 223 217 228 235 234 248
267 265 263 259 259 257 255 252 252 251 247 247 249 250 253 249 248 242 247 246 245 244 242 242 241 236 243 244 244 245 239 240 227 233 215 155 241 218 212 230 228 217 233 229 226
270 266 264 262 261 263 260 257 250 246 247 247 245 245 247 250 247 245 242 242 242 241 245 245 247 243 236 232 236 227 226 224 223 226 199 135 240 216 234 233 228 224 230 228 228
273 271 273 258 256 259 259 255 255 256 245 240 238 241 242 245 246 243 240 237 240 241 240 239 237 243 238 236 234 221 155 219 221 191 229 237 239 235 257 233 228 234 230 232 224
289 287 280 273 270 264 261 247 253 253 244 248 247 232 236 240 243 244 243 242 241 243 197 236 242 242 240 234 232 194 218 215 222 222 223 226 227 228 221 231 231 233 229 227 229
335 332 330 315 299 276 257 257 252 235 245 245 241 245 238 232 237 241 242 240 238 240 238 234 236 234 237 230 228 218 209 215 219 225 225 229 229 213 220 233 221 236 230 227 235
357 347 345 332 313 294 282 271 249 241 231 229 240 240 236 241 230 227 207 239 238 233 234 232 233 232 231 229 222 213 205 210 214 227 225 228 238 226 223 183 214 241 241 227 223
358 359 351 345 328 311 295 268 262 236 241 242 228 232 235 235 237 232 228 231 232 230 230 231 230 229 225 227 223 214 190 205 216 228 228 224 229 228 225 211 215 222 228 236 230
356 356 357 352 344 323 300 274 274 249 230 233 236 234 228 233 233 234 232 234 234 229 228 224 228 225 222 219 216 211 207 207 216 228 232 229 225 223 225 222 212 217 216 237 246
354 353 355 354 357 341 323 298 272 257 242 227 231 231 229 227 235 231 230 233 233 232 228 227 228 226 222 218 215 213 206 205 212 232 226 232 228 223 222 225 218 218 224 225 228
352 354 354 353 352 356 346 318 284 261 247 236 225 228 228 229 228 226 230 230 229 232 231 230 228 226 221 218 212 207 203 202 207 222 230 232 233 221 215 223 222 219 218 223 229
352 352 350 348 350 356 358 345 317 273 265 249 232 224 227 227 227 224 225 226 228 229 229 225 226 222 220 216 210 205 201 203 202 219 225 228 229 229 213 220 226 229 229 227 228